Location: Hermaringen
(48.5952°N, 10.2585°E)
Time: 14:27:18
(UTC+00:00)

SR - Pass Details

Date: 20 February 2026
Orbit: 572 x 849 km, 66.7° (Epoch: 12 March)

Event Time Altitude Azimuth Distance (km) Brightness Sun altitude
Rises 11:16:37 0° 326° (NW) 3,047 ? 30.5°
Reaches altitude 10° 11:18:53 10° 329° (NNW) 2,171 ? 30.5°
Maximum altitude 11:23:49 64° 52° (NE) 825 ? 30.6°
Drops below altitude 10° 11:29:09 10° 133° (SE) 2,339 ? 30.6°
Sets 11:31:40 0° 137° (SE) 3,302 ? 30.6°
